Temp
10 9 9 9 9 9 9 9 9 9 9 9 9 9 9 9 9 9 10 10 10 10 10 10 11 12 13 14 14 15 15 15 15 15 15 17 18 17 17 17 16 16 16 16 15 16 16 16 16 16 17 17 17 17 17 16 17 17 16 16 16 17 18 18 18 18 18 19 19 20 20 19 20 20 21 20 20 21 21 21 22 22 22 22 23 23 23 23
9 10 9 9 9 9 9 9 9 9 9 9 9 9 9 9 9 9 9 9 9 9 9 10 10 10 11 13 14 15 15 15 15 15 17 18 18 18 18 17 17 16 16 16 16 17 17 17 17 16 17 17 17 17 16 16 16 16 17 16 16 18 18 19 18 18 18 18 19 20 20 19 19 20 20 19 19 20 20 21 22 21 22 22 23 23 22 23
9 9 9 9 9 9 9 9 9 9 9 8 8 8 8 8 8 9 9 9 9 9 9 9 9 9 10 12 14 14 14 14 15 17 18 18 18 18 18 18 17 17 16 16 16 16 17 17 17 17 17 17 17 16 16 16 16 17 17 16 17 18 18 18 18 18 18 18 18 19 19 19 19 20 19 18 19 19 19 20 21 21 21 22 23 23 23 22
9 9 9 9 9 9 9 9 9 8 9 9 9 8 8 8 8 8 8 9 9 9 9 9 9 9 10 12 13 14 14 15 17 18 18 17 18 18 17 17 17 17 16 16 16 15 15 16 16 16 16 16 16 16 16 16 16 16 16 16 18 18 17 17 18 18 18 18 18 18 19 18 19 19 19 19 18 19 20 20 21 21 21 22 22 23 23 23
9 9 9 9 9 9 9 9 9 8 8 9 9 9 8 8 8 8 8 9 9 9 9 9 9 9 9 11 13 14 14 16 18 17 17 17 17 17 17 17 17 16 16 16 16 15 15 16 16 16 16 16 16 15 16 17 16 16 16 17 18 17 16 17 18 18 18 18 18 17 17 18 19 19 19 19 18 19 20 21 21 21 21 22 22 22 23 23
9 9 9 9 9 9 9 9 8 8 8 8 8 8 8 8 8 8 8 8 9 9 9 9 9 9 9 11 12 13 15 17 18 17 17 17 16 16 16 16 16 16 16 15 15 15 15 16 16 16 16 16 16 16 17 17 16 16 17 17 17 17 17 17 18 17 17 17 17 17 18 18 18 18 19 19 18 19 21 21 21 21 21 22 22 22 22 22
9 9 9 9 9 9 9 8 8 8 8 8 8 8 8 8 8 8 8 8 8 8 9 9 9 9 9 11 12 13 15 16 17 17 17 17 16 16 16 16 16 16 15 15 15 15 16 16 16 16 16 16 16 16 17 16 16 15 16 17 17 17 17 17 18 17 17 17 17 18 18 17 17 17 18 19 19 20 20 21 21 21 21 21 21 21 21 21
9 9 9 9 9 9 9 8 8 8 8 8 8 8 8 8 8 8 8 8 8 8 8 9 9 9 9 10 12 14 14 16 17 17 17 16 16 16 15 15 15 15 15 16 16 16 16 16 16 16 16 16 16 16 16 16 16 15 16 17 17 17 17 17 17 17 17 17 17 17 17 17 17 17 18 18 19 20 20 20 20 20 20 21 20 21 21 21
9 9 9 9 9 9 9 8 8 8 8 8 8 8 8 8 8 8 8 8 8 8 8 8 8 9 9 10 12 14 15 16 17 17 16 16 16 15 15 15 15 15 15 15 15 15 15 16 16 16 16 16 16 16 16 15 16 16 16 17 17 17 17 17 17 17 17 17 17 16 16 16 17 17 17 18 19 19 20 20 20 20 20 20 20 21 21 21
9 9 9 9 9 8 8 8 8 8 8 8 8 8 8 8 8 8 8 7 7 7 8 8 8 9 9 10 12 14 16 17 17 16 16 16 16 15 15 15 15 14 15 14 14 15 15 16 16 15 16 16 15 16 16 15 16 16 16 16 16 16 17 17 16 17 17 17 16 16 16 17 18 18 17 18 19 19 20 20 20 20 20 20 21 21 21 21
9 9 9 9 9 8 8 8 8 8 8 8 7 8 8 8 8 7 7 7 7 7 7 8 8 8 9 10 12 15 16 16 16 16 16 15 15 15 15 15 14 14 15 14 14 15 15 16 15 15 15 15 15 15 16 16 16 15 15 15 16 16 17 17 16 16 17 17 17 16 16 17 18 17 17 18 19 20 20 20 20 20 20 20 21 21 21 21
9 9 9 9 8 8 8 8 8 8 8 8 8 8 7 7 7 7 7 7 7 7 7 8 8 8 8 9 11 14 16 16 16 15 15 15 14 14 14 14 14 14 15 15 15 15 15 15 14 15 15 15 15 16 15 15 15 15 15 15 16 17 17 17 17 17 17 17 17 17 16 17 17 17 18 19 19 20 19 20 20 20 20 21 21 21 21 21
9 9 9 9 8 8 8 8 8 8 8 8 8 7 7 7 7 7 7 7 7 7 7 7 8 8 9 10 12 14 15 15 15 15 14 14 14 14 14 14 14 14 14 15 15 15 14 14 14 15 15 15 15 15 15 15 15 15 15 15 15 16 17 17 17 16 16 16 16 16 16 17 19 19 20 20 20 20 20 20 20 20 21 21 21 21 21 21
9 9 9 8 8 8 8 8 8 7 7 7 7 7 7 7 7 7 7 7 7 7 7 7 8 8 8 10 12 14 14 13 13 14 14 13 13 13 13 13 14 14 14 14 14 14 14 13 14 14 14 14 15 15 15 15 15 15 16 16 15 15 17 18 17 15 16 16 16 16 16 17 19 20 21 21 21 20 20 20 20 21 21 21 21 21 21 21
9 9 8 8 8 8 7 7 7 7 7 7 7 7 7 7 7 7 6 7 7 7 7 7 8 8 8 10 12 13 13 12 13 13 13 13 13 13 13 13 13 13 14 14 14 14 13 13 14 14 14 13 14 15 15 16 16 15 15 16 16 16 17 18 18 17 17 17 16 16 16 17 19 20 21 21 21 20 19 20 20 20 21 21 21 21 21 21
9 9 8 8 8 7 7 7 7 7 7 7 7 6 6 6 6 7 7 7 7 7 8 8 8 8 10 12 12 12 12 12 13 13 13 13 13 14 13 12 13 13 13 13 13 13 13 13 13 13 13 14 14 15 15 15 16 16 15 15 17 16 17 18 18 16 16 16 16 16 16 18 19 20 21 20 20 20 19 19 20 20 20 21 21 21 21 21
8 8 8 8 8 7 7 7 7 7 7 6 6 6 6 6 6 7 7 7 7 8 8 9 8 8 10 12 12 13 13 12 12 13 13 12 13 13 13 12 12 12 13 12 13 13 13 13 12 12 13 14 14 15 14 15 16 17 16 15 16 16 16 17 17 16 14 15 16 16 16 17 18 19 20 20 20 19 19 19 20 20 20 21 21 21 21 21
8 8 8 8 8 7 7 7 7 7 6 6 6 6 6 7 7 7 7 7 7 8 8 9 8 10 13 13 12 13 12 11 12 12 12 12 12 13 13 13 12 13 13 13 13 13 13 13 13 14 14 14 14 14 14 15 17 17 16 16 16 16 16 16 17 16 15 16 16 16 17 17 18 19 20 20 20 20 20 20 20 20 20 21 21 21 21 21
8 8 8 8 8 7 7 7 7 7 6 6 6 6 6 7 7 7 7 7 8 10 11 10 10 14 15 13 12 12 11 11 11 11 11 11 12 13 13 13 12 13 14 14 14 13 13 14 13 14 15 15 15 15 15 16 17 16 15 15 15 15 16 16 17 17 16 15 15 16 17 18 18 19 20 20 20 20 20 20 20 20 20 20 20 20 20 20
8 8 8 8 8 7 7 7 7 6 6 6 6 6 7 8 9 9 8 7 8 11 11 10 11 14 14 13 11 11 11 11 11 11 11 11 12 13 13 13 13 13 14 14 14 13 13 14 14 15 16 17 16 16 16 16 16 15 14 14 14 15 15 16 17 17 15 14 16 17 17 18 18 19 19 20 20 20 20 19 19 20 20 20 20 20 20 20
8 8 8 8 7 7 7 7 7 6 6 6 5 6 8 9 11 10 8 8 9 9 9 10 11 12 12 11 10 11 12 12 11 11 11 11 13 13 13 13 13 14 13 13 13 12 13 14 15 16 16 16 15 14 15 15 14 14 14 14 15 15 15 16 17 16 15 14 16 17 17 17 18 19 20 20 20 20 20 20 20 20 20 20 20 20 20 20
8 8 8 8 7 7 7 6 6 6 6 6 5 6 7 7 7 7 7 9 10 9 9 9 9 10 10 10 10 11 12 13 12 11 11 12 13 14 14 13 14 14 13 12 13 13 13 14 16 16 15 14 13 12 13 13 13 14 14 14 14 15 16 17 16 15 13 14 16 17 16 17 18 19 20 21 21 21 21 21 20 21 21 21 21 21 20 20
8 8 8 8 7 7 7 6 6 6 5 6 6 6 6 6 6 5 6 9 11 10 9 9 9 9 9 10 10 10 12 13 13 12 11 12 12 13 13 13 14 14 12 13 14 14 15 15 15 15 14 13 13 12 11 12 13 13 14 14 15 16 15 16 16 14 14 14 15 15 15 17 19 20 21 22 22 22 21 20 20 19 19 20 20 20 20 20
8 8 8 8 7 7 7 6 6 6 6 6 6 6 6 5 5 5 7 10 11 10 9 9 9 10 10 10 10 11 12 13 14 13 11 12 12 12 13 14 13 13 13 14 14 15 16 14 12 12 13 13 13 12 12 13 14 14 14 14 15 16 15 16 16 15 15 15 14 15 16 19 21 21 22 23 22 21 20 19 19 19 18 18 18 18 18 18
8 8 8 8 7 7 7 6 6 6 6 6 6 6 5 6 6 5 7 11 12 11 10 10 10 10 10 10 10 11 12 12 13 13 11 12 13 12 13 13 13 14 14 13 13 14 15 13 12 13 13 13 13 13 13 14 15 15 15 14 15 16 15 15 15 14 16 16 15 15 16 19 21 22 22 23 22 22 21 20 20 20 19 18 18 18 18 18
8 8 8 8 7 7 6 6 6 6 6 6 6 6 5 6 6 5 8 11 12 12 12 11 12 12 11 10 10 11 13 12 11 11 11 12 13 13 13 13 13 14 13 12 13 14 14 12 12 14 13 13 13 13 13 13 14 15 15 14 14 15 14 14 14 14 15 16 15 15 15 17 20 22 22 21 22 23 22 21 20 20 20 19 19 19 19 18
8 8 8 8 7 7 6 6 6 5 5 6 6 6 5 6 6 6 9 13 14 14 12 11 12 12 11 10 10 12 14 12 10 10 10 11 12 13 14 13 12 12 11 12 13 14 13 11 11 12 13 13 13 14 14 13 14 15 13 12 14 14 14 14 14 14 15 15 15 14 14 16 17 20 22 22 22 23 23 22 21 21 21 20 20 20 19 18
8 8 8 8 7 7 6 6 5 5 6 6 5 5 5 6 6 7 12 15 16 15 13 11 11 11 10 9 10 11 11 11 11 11 10 10 12 13 13 13 13 13 11 12 15 14 12 12 12 12 12 13 14 14 13 13 15 15 12 12 13 13 14 14 14 15 15 14 15 15 13 15 17 20 22 22 22 23 23 22 22 22 22 21 20 20 19 19
9 8 8 8 7 6 6 7 6 6 6 6 5 5 6 5 6 10 13 15 16 15 13 12 11 10 10 9 10 10 10 10 11 11 10 11 11 12 12 12 13 13 12 13 14 14 12 11 12 13 13 14 14 13 12 13 14 13 11 11 12 12 13 13 14 15 14 14 16 15 14 15 18 20 22 21 21 23 23 23 22 23 23 22 20 20 19 19
9 8 8 8 7 6 6 6 6 7 6 6 6 6 5 6 9 13 13 14 17 15 12 12 11 10 10 10 10 10 11 10 10 10 10 11 11 11 11 11 12 13 12 12 13 13 12 9 10 12 14 14 13 10 9 12 12 10 11 13 14 14 13 13 14 14 14 15 16 15 13 15 17 20 21 21 22 22 22 22 22 23 23 22 22 20 20 19
9 8 8 7 7 6 6 5 5 7 6 6 6 5 6 8 11 14 13 15 18 14 11 11 10 10 10 11 11 10 10 10 10 11 11 11 11 11 11 11 12 12 12 12 12 13 13 11 11 12 12 12 12 11 9 9 10 11 13 14 15 16 15 14 14 14 15 17 16 14 13 14 16 19 22 22 21 21 21 21 22 22 22 22 22 21 20 19
9 8 8 7 7 6 6 6 6 6 6 6 5 5 8 11 12 13 14 16 18 14 13 12 9 10 10 11 11 10 10 10 10 11 11 11 11 11 12 13 13 13 13 13 13 13 13 13 13 12 11 11 13 13 11 10 11 12 14 14 14 16 16 15 16 15 16 17 15 13 14 14 16 19 21 21 21 21 21 21 21 21 21 21 21 20 19 17
9 8 8 7 7 6 7 7 7 6 6 6 5 6 9 12 12 13 14 16 17 14 12 11 9 10 10 11 11 10 11 11 10 11 11 11 11 11 12 13 12 13 14 14 13 14 14 14 12 12 12 12 13 14 14 13 12 13 14 15 15 15 15 15 16 15 16 16 15 13 14 15 18 20 21 21 21 20 20 20 19 19 19 19 19 18 17 16
9 8 8 8 7 7 7 7 7 6 6 5 6 7 9 11 13 14 15 15 14 11 11 11 10 10 10 12 11 10 11 11 10 10 11 10 11 11 12 12 11 12 13 14 14 14 16 16 13 12 12 11 12 14 14 14 13 13 14 14 15 16 15 15 16 16 16 16 15 13 14 17 19 21 21 21 21 20 19 18 18 17 17 17 16 16 16 16
9 8 8 8 7 7 7 7 7 7 5 5 6 8 10 11 12 14 15 14 12 11 10 10 10 10 10 11 10 10 12 12 10 10 10 11 11 12 12 12 11 12 13 14 15 14 15 16 12 8 8 9 11 12 12 14 14 13 13 14 15 15 16 15 14 13 13 13 14 14 15 18 19 21 21 21 21 20 19 18 16 17 16 16 16 17 16 16
8 8 8 7 6 6 6 7 7 6 5 6 7 8 10 13 13 13 15 14 13 12 11 11 11 11 11 11 10 10 11 12 10 10 11 11 11 11 12 12 11 12 13 15 15 14 15 15 10 7 8 8 9 10 10 13 14 13 13 14 13 13 15 16 13 11 10 12 15 15 16 18 19 21 21 21 22 22 20 19 17 17 16 17 17 17 16 16
8 8 8 7 6 6 6 7 7 6 5 6 7 9 11 13 13 14 14 13 13 12 12 14 14 12 12 12 11 10 11 11 10 11 12 11 12 12 11 12 12 12 14 15 16 15 16 15 10 8 11 9 6 8 10 10 11 13 13 14 13 12 14 15 14 13 13 14 16 15 16 18 18 20 22 22 22 23 22 20 19 18 17 17 17 16 16 16
8 8 8 7 6 6 6 6 6 5 5 6 7 9 10 11 13 14 13 13 12 12 13 15 15 14 13 13 12 10 11 12 11 11 12 12 13 13 11 12 12 11 13 15 15 14 15 16 11 7 9 9 7 9 11 10 9 11 12 12 12 14 15 14 14 15 15 15 16 15 15 16 17 19 22 22 22 22 21 21 20 19 18 17 17 16 16 16
7 8 8 7 6 6 6 6 6 5 5 6 7 8 10 10 12 13 13 13 14 13 14 15 15 15 14 13 13 11 10 12 11 11 13 13 13 14 13 13 13 11 12 13 14 14 14 16 14 8 7 10 9 11 13 12 10 10 11 11 11 13 15 14 14 15 15 16 16 15 16 17 18 19 20 21 22 21 21 20 20 19 18 16 16 16 16 16
7 8 7 6 5 5 6 5 4 4 5 7 8 8 9 9 10 12 12 12 14 14 14 15 15 15 14 12 12 11 11 12 11 11 13 13 14 14 13 14 13 11 12 12 13 14 14 15 15 10 8 10 11 12 13 14 12 11 12 12 12 12 13 13 13 13 14 16 15 14 16 19 20 20 20 21 21 20 19 19 19 19 18 17 15 15 15 16
8 8 6 5 5 5 5 4 4 5 6 7 8 8 8 9 9 11 12 12 13 13 14 15 15 15 14 13 12 12 11 11 11 11 13 13 14 16 14 14 12 10 10 11 12 13 14 14 14 12 10 12 13 11 10 12 13 13 13 14 14 14 13 14 14 11 11 14 15 14 15 18 20 20 20 20 19 19 18 18 18 18 18 17 15 15 15 16
8 8 6 5 5 5 5 4 5 6 6 7 8 8 8 9 9 10 11 11 11 12 12 13 14 14 14 14 13 12 11 11 11 11 12 13 14 16 14 12 11 11 11 11 12 13 13 13 13 13 13 12 10 7 6 7 9 11 12 13 14 15 14 15 15 12 11 11 12 12 13 17 18 18 18 18 18 17 16 15 17 18 18 18 17 17 17 17
7 7 6 5 5 5 5 5 5 6 6 7 8 7 8 9 9 9 10 11 11 11 12 12 13 13 14 13 13 12 12 12 11 11 12 12 13 14 13 11 11 12 12 12 12 12 13 13 13 13 14 11 9 7 6 6 8 11 12 12 13 14 15 15 14 13 12 12 13 13 13 17 17 15 16 17 17 16 15 15 16 17 18 19 19 19 18 18
7 5 4 4 5 6 6 6 6 6 6 7 7 7 8 8 8 9 9 10 11 11 11 12 12 13 13 13 13 13 13 13 13 12 12 12 12 12 11 11 11 12 13 13 13 13 13 14 13 13 13 12 11 10 10 8 9 11 12 12 12 13 13 12 12 12 13 13 14 14 14 17 17 16 17 18 17 18 18 17 18 18 18 19 19 19 19 18
5 4 4 4 5 5 6 7 8 7 6 6 6 7 7 7 8 9 9 10 11 11 12 12 12 13 13 13 13 13 12 13 13 13 12 12 11 10 9 10 12 13 13 13 14 14 14 14 14 13 14 14 14 14 14 13 11 11 11 11 11 12 12 12 12 12 12 13 14 14 15 17 18 18 19 19 19 20 20 20 19 19 19 19 19 19 19 18
5 5 4 4 4 5 6 7 7 7 7 7 6 7 7 7 8 8 9 10 10 11 11 11 12 12 12 12 12 12 12 12 13 12 12 12 11 10 8 9 11 12 11 12 13 14 13 12 13 15 15 16 16 16 15 14 13 12 12 11 11 12 12 13 13 13 13 13 13 14 16 17 17 18 19 19 19 19 19 20 20 19 19 19 19 19 18 18
5 6 6 5 5 4 5 5 5 6 8 7 7 8 7 7 8 7 8 9 10 10 10 11 11 11 11 11 11 11 11 11 12 12 12 12 11 9 7 8 9 10 10 11 12 13 12 12 12 14 15 15 16 16 14 13 14 15 14 13 12 11 12 12 13 13 14 14 13 14 15 15 16 17 18 18 18 18 19 19 19 19 19 19 19 18 18 18
5 6 7 7 6 6 5 5 5 6 7 8 8 9 8 7 7 7 8 8 9 10 10 10 10 10 11 11 11 10 11 11 11 11 12 11 11 10 9 9 9 9 10 11 12 12 12 12 12 13 13 14 14 14 13 13 14 14 15 14 13 12 11 11 12 13 14 14 14 15 15 15 16 17 17 18 18 18 18 19 19 19 19 19 18 18 18 18
4 5 5 6 6 7 7 7 6 6 7 7 8 9 9 8 8 8 8 8 8 9 9 9 10 10 10 11 11 10 10 10 10 11 11 11 11 11 11 10 9 8 9 11 11 10 12 13 12 12 12 13 13 13 13 13 13 13 13 14 14 13 12 11 12 13 14 14 15 16 15 15 17 17 17 18 18 18 18 18 18 18 18 18 18 18 18 18
3 3 4 4 5 6 6 7 6 6 6 7 7 8 9 9 9 9 9 8 7 8 9 9 9 10 10 10 10 10 11 11 11 11 11 11 10 11 11 11 11 8 8 10 10 10 11 12 11 11 12 12 13 13 13 13 13 13 13 13 14 13 12 11 12 12 13 13 14 14 14 15 16 17 17 17 18 17 17 17 17 17 18 18 17 17 18 18
1 1 2 3 4 5 5 6 6 6 6 6 6 7 8 9 9 9 9 9 9 8 9 9 9 10 10 10 10 10 11 11 11 11 11 11 11 11 11 11 11 10 8 9 9 10 10 10 10 11 11 12 12 12 12 13 12 12 12 13 13 13 13 12 12 12 12 13 13 13 13 14 16 16 16 17 17 16 16 17 17 17 17 17 17 17 17 17
1 0 1 2 3 4 5 5 6 6 6 7 7 7 8 8 9 9 9 9 9 9 9 9 9 10 9 9 9 10 11 11 11 11 12 12 12 12 11 11 12 11 9 8 9 10 10 10 11 11 11 12 11 11 11 12 11 11 12 13 13 13 13 13 12 13 13 13 13 13 14 15 16 16 16 16 16 16 16 17 16 16 16 16 17 17 17 17
Height
818 818 819 820 820 820 819 818 818 818 819 819 819 819 819 818 817 816 815 814 814 813 813 812 811 811 810 809 809 808 807 805 804 804 801 797 795 795 794 794 795 795 796 796 796 796 795 795 795 796 795 795 795 795 797 797 797 798 800 800 795 790 785 779 780 780 777 775 772 768 767 769 768 763 761 761 761 759 757 754 752 750 750 749 749 749 747 746
816 817 818 819 819 819 819 818 817 817 817 818 818 818 818 818 817 816 814 813 813 813 812 812 811 810 809 809 808 807 806 804 803 800 797 794 793 793 793 793 794 794 795 796 796 795 795 793 794 794 793 793 794 795 796 796 797 797 796 796 791 784 778 775 778 777 776 776 772 768 767 768 768 764 762 764 761 758 757 752 750 749 747 747 746 747 746 744
816 816 816 817 818 818 818 817 817 816 816 817 817 818 817 817 816 815 814 813 813 812 812 811 810 809 809 808 807 807 805 804 801 795 792 793 793 792 793 793 793 794 795 795 795 795 794 793 793 793 793 792 792 795 796 795 796 794 793 794 786 780 778 777 778 777 775 774 773 770 767 766 765 763 763 764 762 757 756 752 750 748 746 745 744 743 743 743
815 815 814 815 816 816 816 816 816 815 815 816 816 817 817 816 816 814 813 813 812 812 811 811 810 809 808 807 807 807 805 803 796 791 791 792 792 792 793 793 793 794 794 794 794 794 794 794 793 792 793 793 792 795 795 794 794 792 793 791 781 779 781 778 776 775 773 772 772 770 768 767 763 762 761 762 762 754 750 749 748 747 745 744 742 740 740 740
815 814 813 813 814 815 815 815 815 814 814 814 815 815 815 815 815 814 813 812 812 811 811 810 809 808 808 807 807 806 806 804 793 789 792 791 791 792 793 793 793 793 793 794 793 794 794 793 793 793 793 792 792 794 792 789 792 792 789 785 780 781 781 775 773 773 772 771 771 771 771 766 762 759 758 759 758 748 745 746 744 743 743 742 740 738 737 737
814 813 813 811 812 813 813 814 814 814 813 813 813 813 814 814 814 813 812 811 811 810 810 809 808 808 807 807 807 805 807 803 791 790 792 790 792 791 792 793 793 793 793 793 793 794 794 793 792 792 792 791 791 791 788 787 791 791 785 780 779 779 778 773 771 771 772 772 771 770 766 763 762 758 755 753 747 741 742 743 742 741 740 739 738 736 735 735
813 813 813 811 811 811 812 812 812 813 813 812 812 812 812 812 813 812 811 811 810 809 809 808 808 807 806 806 806 806 805 797 788 790 790 790 791 791 792 792 792 793 792 793 793 793 792 792 791 790 792 791 789 788 786 787 790 791 784 779 777 776 775 772 770 769 770 770 769 766 763 763 763 758 752 746 740 740 742 741 740 739 737 738 736 734 733 731
812 812 812 812 810 810 810 810 811 811 811 811 811 811 811 811 811 811 811 810 809 809 808 807 807 806 806 806 805 805 801 791 787 789 788 789 790 790 791 791 792 792 792 793 792 792 792 792 790 790 791 789 788 787 786 788 788 788 784 778 775 774 772 770 769 769 769 768 766 765 764 762 759 756 749 740 739 741 741 739 738 736 734 734 732 730 728 726
811 811 811 811 810 810 809 809 809 810 810 810 810 810 809 809 809 809 809 809 809 808 807 807 806 806 806 806 806 803 794 786 786 787 786 787 788 788 790 790 791 791 792 792 791 792 792 791 790 789 789 787 788 787 786 789 785 782 781 777 775 774 771 770 769 767 766 764 764 764 762 757 753 752 746 738 740 740 736 735 732 731 730 728 727 725 723 720
809 810 810 810 810 810 809 808 808 808 809 809 809 809 808 808 807 807 807 807 808 808 807 807 806 805 805 805 806 800 787 784 786 785 786 786 786 787 788 789 790 790 791 791 791 791 791 790 789 789 789 787 788 786 786 787 783 780 780 778 776 773 769 769 768 763 762 761 760 760 756 749 746 748 745 737 735 733 731 729 726 726 725 722 721 719 718 715
808 808 809 809 809 809 809 808 807 808 808 807 808 808 807 807 806 806 805 805 806 807 807 807 806 805 804 804 803 793 783 784 785 785 786 786 786 786 787 788 788 789 790 790 790 790 790 790 790 791 790 788 787 786 784 783 781 781 781 778 774 770 766 765 764 759 760 757 752 753 752 747 746 747 743 734 729 727 726 725 722 721 719 718 716 714 713 711
806 807 807 807 808 808 808 808 807 807 807 807 807 806 807 806 805 805 804 804 804 805 806 806 807 805 804 803 796 785 782 784 783 784 785 784 786 786 786 787 787 788 788 788 789 788 790 790 790 790 788 787 786 784 783 782 782 781 781 779 771 767 763 759 756 753 756 753 747 751 753 746 743 741 735 727 723 723 723 721 718 716 714 713 712 710 709 707
804 805 805 806 806 807 807 807 806 806 806 806 805 806 806 805 805 804 803 803 802 802 803 805 806 805 806 799 785 779 781 783 782 783 783 784 785 785 786 786 786 787 787 787 787 788 789 789 790 789 788 788 786 783 782 781 782 780 779 778 772 767 759 752 752 754 754 751 748 753 753 740 731 728 724 719 718 719 718 716 714 712 709 708 707 705 704 703
803 803 804 804 805 805 805 805 805 805 805 804 804 804 804 804 804 803 803 802 801 801 801 803 804 805 805 792 778 778 779 780 781 781 781 783 784 785 785 785 785 786 786 786 787 787 788 788 790 789 789 788 785 784 782 779 780 779 776 774 773 770 758 749 752 754 752 749 747 752 752 737 724 720 716 714 713 715 714 711 709 707 704 702 702 702 699 698
801 801 802 802 803 803 803 803 804 804 804 803 803 803 803 803 803 802 803 801 801 801 799 802 802 803 804 789 777 776 776 777 778 777 779 781 782 784 784 785 785 785 785 786 786 786 787 788 789 788 788 788 787 785 782 778 776 777 778 771 767 766 755 745 746 748 748 746 746 750 747 731 719 715 711 710 710 710 711 707 705 703 700 698 697 696 695 692
799 800 800 801 801 801 801 802 802 803 803 802 802 802 802 802 802 802 801 801 801 800 800 801 800 803 801 785 776 775 774 774 774 774 777 778 780 782 783 784 785 785 785 785 785 786 787 788 790 790 789 787 786 785 783 780 773 772 777 772 765 763 756 746 743 746 748 746 745 747 743 726 715 711 707 707 707 707 707 704 701 698 695 693 691 690 690 687
798 798 799 799 800 800 800 800 801 802 802 801 801 801 800 800 800 800 800 801 800 799 800 799 799 803 793 778 775 774 771 772 772 773 774 776 779 780 782 784 784 785 785 785 786 786 786 788 790 789 788 787 786 785 786 781 771 767 771 771 765 762 760 752 745 746 751 749 745 744 738 725 714 709 705 703 702 702 702 699 695 692 688 686 685 684 683 682
796 796 797 797 798 798 798 798 800 800 800 801 800 799 799 798 798 799 799 799 800 801 800 799 801 798 781 772 774 771 769 771 771 772 773 775 778 779 781 783 784 785 784 785 785 786 786 787 788 786 784 787 785 785 785 777 769 768 770 769 764 760 759 754 747 746 749 748 744 740 732 720 711 705 701 696 695 697 696 692 688 685 683 681 680 678 677 676
794 794 795 796 796 797 797 797 799 799 799 800 799 798 797 797 798 798 798 798 797 794 790 789 790 782 770 767 771 769 770 771 771 772 773 775 777 779 780 782 783 784 784 784 783 784 785 784 787 785 780 779 778 778 777 770 767 770 771 771 770 765 759 751 746 744 747 749 744 736 726 716 708 701 696 690 688 691 688 684 682 680 678 676 675 673 671 671
792 793 793 794 794 795 796 796 797 798 799 798 798 798 796 795 794 793 797 796 788 780 776 777 775 769 766 768 769 770 771 771 771 772 773 774 776 778 780 781 783 784 783 781 781 784 785 782 781 776 770 768 770 772 771 769 771 774 774 772 771 768 759 749 745 743 748 752 740 729 722 713 706 698 690 684 683 684 681 679 677 674 673 671 670 668 666 665
790 791 791 792 792 793 794 795 796 797 797 797 798 797 794 792 788 788 793 788 779 776 774 774 772 768 767 768 769 769 770 770 771 771 772 774 774 776 778 780 783 782 781 782 782 785 785 780 771 765 764 766 770 774 774 774 775 776 775 772 767 765 757 746 744 744 749 753 739 726 720 709 701 693 682 678 678 677 673 673 672 667 667 665 664 663 661 660
788 788 789 791 790 791 792 793 794 795 796 796 797 796 793 792 789 790 792 783 773 773 773 772 773 770 767 769 769 769 769 769 770 770 771 773 773 774 775 778 780 777 782 785 782 783 781 772 762 760 765 771 776 779 780 780 779 776 774 773 767 760 754 745 743 749 754 753 739 728 723 706 693 684 675 672 670 667 665 666 665 663 662 661 659 659 657 657
786 786 788 789 789 790 790 791 792 793 794 794 795 794 792 791 791 791 793 785 772 766 768 768 769 768 766 767 767 769 768 765 766 768 769 770 772 774 773 776 776 776 782 781 776 776 773 765 761 762 768 772 776 780 783 781 779 775 771 770 763 755 756 750 744 750 752 748 742 736 726 701 681 674 667 664 663 661 662 662 662 662 662 659 657 657 656 655
783 784 786 786 788 789 788 790 791 791 792 792 792 792 790 791 791 791 791 783 771 763 761 761 762 761 759 762 763 765 766 763 762 764 765 767 769 773 772 771 774 777 778 775 773 771 763 763 767 769 770 771 773 777 780 777 770 768 767 767 760 753 757 752 746 749 743 741 744 738 721 690 672 672 663 657 660 660 660 661 660 660 660 659 659 658 658 655
780 782 783 784 786 786 788 789 787 789 790 790 790 789 790 791 790 792 790 780 769 761 758 756 757 755 753 757 760 761 765 763 760 760 762 764 765 768 770 770 772 772 771 774 777 770 760 763 767 767 770 771 771 771 772 772 766 762 760 761 758 752 754 753 752 753 744 738 741 741 730 696 670 670 665 658 660 658 656 658 659 658 657 659 659 657 656 654
777 779 781 783 784 785 788 786 785 787 788 787 787 786 789 789 789 791 788 780 765 753 752 751 749 749 749 755 759 761 762 759 757 758 760 762 761 763 767 769 770 769 770 775 777 768 762 765 765 763 766 769 770 768 766 769 769 761 756 758 757 755 757 756 756 756 747 739 738 744 746 718 682 668 664 664 662 657 655 657 658 657 657 656 656 654 654 653
773 776 778 780 782 783 784 783 784 786 786 787 785 786 788 786 790 790 783 776 755 737 743 749 747 747 749 755 757 756 755 754 757 760 760 760 761 761 763 765 769 771 774 777 772 763 761 767 768 765 765 766 767 763 761 767 766 759 760 763 759 758 759 757 757 755 749 744 739 742 747 736 709 678 662 664 662 657 656 656 655 654 653 653 652 652 651 651
768 772 774 777 780 779 779 780 781 783 784 784 783 787 787 785 790 787 779 770 743 726 737 746 748 748 750 756 757 755 756 755 756 760 760 761 761 761 762 762 764 767 772 772 763 756 760 764 764 765 766 764 760 756 758 763 760 757 763 766 760 760 758 756 757 751 749 750 740 738 745 740 716 680 660 664 665 661 657 655 655 650 648 650 650 650 649 648
764 767 770 774 777 777 777 777 778 780 781 781 784 786 785 789 789 780 781 769 733 724 737 742 747 751 753 758 758 758 759 757 756 758 761 761 760 760 762 763 763 765 769 768 758 755 761 765 762 761 760 756 753 758 762 759 757 761 767 766 763 762 759 758 757 749 751 753 738 734 743 737 711 677 665 669 666 662 658 654 653 648 647 648 648 649 648 647
760 762 765 771 773 775 775 775 778 779 780 781 783 784 786 790 781 774 781 757 720 727 742 741 747 751 753 758 759 759 758 758 759 760 761 761 760 761 762 764 765 765 767 768 762 757 761 768 768 761 754 751 755 765 769 763 762 768 766 760 757 755 755 757 754 750 751 743 733 737 743 740 720 682 666 669 664 661 661 657 653 648 647 645 644 647 647 647
756 758 761 765 767 770 771 774 776 776 780 781 782 786 786 784 776 769 761 730 713 733 743 742 750 751 750 753 754 757 758 760 760 758 760 760 760 762 762 762 765 767 767 765 761 756 759 763 761 757 754 755 757 763 770 771 769 767 759 756 754 747 747 751 751 754 748 731 730 741 742 743 730 689 665 665 663 662 663 661 657 652 649 646 644 645 647 648
752 754 757 760 762 765 767 770 772 775 779 779 783 787 780 775 772 756 737 718 716 729 732 740 751 749 750 750 749 755 757 757 758 755 756 757 757 758 755 752 756 761 759 756 755 753 752 749 748 753 757 757 754 755 763 767 766 764 758 759 758 750 748 746 743 746 739 726 732 742 741 738 721 688 668 663 660 661 662 662 660 656 653 649 647 647 648 650
749 749 753 756 757 760 763 766 770 774 777 778 784 785 777 771 755 732 725 721 719 726 730 738 747 748 750 747 747 755 754 753 757 756 755 756 754 753 750 749 752 752 748 749 753 750 744 741 747 751 751 752 750 747 750 753 758 759 754 755 755 753 756 751 743 741 736 729 733 742 740 728 704 679 666 662 660 662 663 663 662 660 657 654 652 653 652 652
745 746 749 751 753 756 760 764 768 772 775 778 782 782 777 764 734 715 721 722 723 734 738 739 746 751 750 744 745 751 750 750 755 756 757 758 756 752 748 750 755 752 749 750 748 746 739 732 741 748 747 749 747 743 742 744 751 753 749 751 750 747 749 746 738 734 734 733 735 742 736 715 693 671 659 659 660 661 663 664 665 663 661 660 658 657 655 653
742 743 744 747 750 752 756 761 765 770 774 776 779 778 765 743 724 716 717 719 727 737 741 742 746 750 749 747 749 749 743 745 753 757 757 754 749 745 740 742 749 750 749 746 739 744 741 730 742 759 760 756 749 747 749 745 747 752 752 752 748 741 739 743 749 751 753 749 738 734 722 700 683 666 656 659 659 659 663 666 668 666 663 663 660 657 656 655
738 739 741 742 744 747 753 758 761 767 771 773 776 769 743 720 718 718 712 714 722 729 738 742 741 744 747 747 750 751 743 743 752 755 753 751 746 743 738 734 740 743 740 735 732 738 738 735 751 764 760 760 757 754 754 747 744 751 752 748 748 748 740 740 755 766 769 754 730 721 712 694 683 666 654 658 657 655 660 663 666 667 664 662 660 658 658 656
735 735 736 736 738 742 748 753 757 764 770 770 766 751 727 714 714 713 711 714 718 722 727 726 725 732 738 738 741 746 744 743 750 749 746 748 740 734 737 732 732 734 728 724 725 728 727 731 752 761 752 759 767 760 756 755 750 748 747 744 746 751 746 743 747 750 751 741 723 720 713 699 694 675 655 656 657 654 657 659 662 663 662 662 660 660 660 658
732 731 731 730 733 736 743 750 755 761 768 769 760 741 726 720 715 711 712 715 716 719 718 712 713 718 724 728 731 740 742 738 746 746 740 741 729 718 727 727 725 728 724 723 726 727 725 725 746 767 759 756 765 757 750 755 756 750 747 749 748 744 741 747 748 740 738 735 721 717 712 704 699 681 660 659 660 657 658 660 660 660 662 663 661 660 660 658
730 728 726 726 728 732 740 746 752 760 765 762 753 739 727 724 719 714 715 714 712 714 713 708 710 713 717 722 724 734 739 733 740 742 731 730 723 712 716 716 717 724 723 725 728 726 727 723 734 761 764 756 757 749 739 744 756 757 751 751 751 743 737 741 744 738 734 731 724 718 709 695 684 674 666 663 659 659 661 661 661 660 661 663 663 662 661 660
727 725 722 722 726 730 736 744 751 758 755 746 738 731 726 724 721 716 716 714 711 710 708 706 709 711 715 722 725 729 733 731 735 735 724 720 716 710 711 709 715 725 726 728 729 725 729 725 726 750 763 754 744 738 731 729 739 748 745 745 747 745 745 743 741 742 737 729 729 728 712 685 668 665 665 662 659 662 664 663 662 660 660 663 665 665 663 661
723 722 720 721 724 726 735 746 749 747 743 736 730 726 724 723 722 718 716 715 713 709 708 706 706 709 713 719 722 725 730 730 731 730 722 718 711 704 705 706 713 725 729 733 731 725 726 725 725 740 749 739 730 737 743 735 732 734 732 732 733 735 741 739 737 749 751 737 731 733 720 687 663 659 659 660 663 664 666 666 663 660 659 660 663 664 663 661
719 716 715 718 720 721 730 739 738 735 734 727 720 719 719 718 719 719 715 716 715 711 710 708 706 707 710 711 714 721 726 727 729 727 719 714 708 701 702 708 713 717 721 727 726 721 723 725 727 730 730 732 740 752 758 751 743 739 733 729 726 726 728 726 727 740 752 750 741 742 732 692 663 663 663 663 667 666 669 670 665 661 659 656 657 657 658 657
713 712 713 715 715 715 723 730 729 729 726 715 712 715 715 714 716 717 714 714 714 712 711 709 708 707 707 708 710 717 721 721 723 721 716 713 708 703 705 711 714 714 714 718 721 723 724 724 726 725 722 733 747 753 756 756 749 739 734 733 729 723 720 722 726 729 736 741 737 738 728 688 665 671 669 665 669 669 670 671 666 662 658 653 651 651 652 652
709 712 715 715 714 711 712 714 717 719 718 713 715 717 715 713 713 712 712 711 710 710 708 706 706 705 705 705 707 710 714 713 712 712 712 711 709 708 710 711 711 710 708 708 710 715 718 717 721 725 724 727 735 738 742 748 746 734 726 729 729 724 725 731 736 734 731 726 720 721 711 680 667 673 667 664 666 661 660 661 660 659 654 650 648 646 647 649
710 712 714 714 713 708 701 697 698 703 707 712 714 712 712 712 708 706 707 707 707 707 705 703 703 702 704 706 705 707 710 708 706 707 709 710 710 712 715 712 708 706 705 705 703 704 709 710 711 715 716 715 716 716 713 717 729 732 727 728 727 725 727 728 728 729 727 720 714 710 695 672 666 669 663 661 661 655 652 652 653 655 652 650 649 646 645 645
706 705 709 713 712 706 700 695 695 696 697 704 707 705 707 708 703 703 706 706 705 704 702 702 702 701 703 706 706 708 709 708 707 707 707 708 708 712 717 716 712 711 711 709 704 704 710 711 706 700 697 695 693 695 698 703 712 718 719 722 723 722 721 718 718 718 717 713 708 701 689 674 670 671 665 662 661 658 654 652 652 653 650 648 647 645 645 644
700 693 695 702 704 704 702 700 700 695 690 694 695 694 698 701 700 703 706 703 699 700 702 702 701 700 700 701 706 708 708 709 710 706 704 705 707 714 719 718 717 716 715 711 705 705 709 710 704 698 694 691 688 692 700 704 702 701 704 710 716 719 719 717 713 707 706 707 698 690 690 682 673 673 669 662 662 660 656 655 653 650 647 646 645 645 645 644
695 687 683 684 685 689 691 691 693 691 688 688 685 682 687 694 696 698 699 696 696 698 701 701 698 695 694 696 704 707 708 711 709 702 701 705 708 713 715 716 718 718 716 714 708 706 706 702 699 701 698 695 695 698 701 702 699 697 697 698 703 712 716 715 709 701 700 699 686 681 687 680 671 673 669 661 659 657 656 655 651 648 647 644 644 646 645 642
692 688 683 680 677 675 676 677 682 686 686 685 683 677 678 683 686 686 687 693 697 695 694 694 690 687 690 695 700 703 703 704 701 696 699 705 706 705 708 711 716 719 718 714 712 712 706 697 697 701 698 695 695 697 699 701 701 698 696 693 694 700 706 706 703 698 694 686 677 678 679 669 665 668 663 657 653 650 653 654 649 648 647 644 645 648 645 639
692 690 686 683 679 675 674 676 680 685 685 685 683 678 674 673 674 675 677 684 691 690 688 687 681 679 686 693 696 696 690 688 690 691 696 702 703 702 704 703 707 719 722 715 714 715 707 700 701 703 701 697 694 695 698 699 698 695 691 688 688 691 697 702 699 697 694 685 679 681 675 664 662 661 655 655 654 648 648 651 649 647 645 645 647 647 642 637
692 692 691 688 682 676 675 675 677 682 682 681 680 677 673 669 667 669 671 673 677 680 680 678 675 676 683 690 693 688 679 679 687 690 691 695 696 697 700 699 701 711 719 717 714 713 710 708 707 707 704 696 692 696 697 696 699 697 685 681 685 687 689 693 691 689 688 683 683 686 676 662 659 658 653 654 656 650 643 643 647 647 645 646 646 642 639 636
692 692 691 691 686 679 674 673 674 676 674 672 672 671 668 665 664 668 671 671 671 672 671 671 673 678 685 688 685 676 671 678 685 687 689 690 691 692 695 697 697 701 711 716 712 709 709 705 704 706 700 694 700 705 700 699 705 692 670 667 676 679 679 680 679 678 678 677 677 673 662 653 654 656 655 652 651 646 638 638 645 647 646 645 642 639 637 634
Wind_Speed
6 5 6 7 7 7 6 6 5 5 6 7 7 8 8 8 8 7 6 6 7 7 8 9 10 11 13 14 16 17 17 18 18 13 12 19 19 13 11 11 10 9 6 4 4 4 3 4 4 4 4 3 2 2 3 3 3 4 5 9 11 12 13 11 12 11 9 10 9 9 8 9 11 10 5 4 10 12 13 13 12 10 9 11 13 15 20 23
7 6 6 7 7 7 6 6 5 5 6 7 8 8 9 9 8 8 7 7 7 7 9 9 10 12 12 14 15 15 16 17 16 15 17 16 8 2 3 5 7 6 3 3 3 4 4 4 4 6 5 3 3 2 3 3 4 6 6 9 11 12 11 9 11 12 11 13 13 13 13 13 13 13 7 9 17 16 16 16 14 15 14 14 15 17 21 23
9 7 6 7 7 7 7 6 5 5 6 7 8 9 10 10 9 9 8 8 8 8 9 9 10 11 12 13 12 12 13 13 12 12 9 2 4 4 4 3 4 3 3 3 3 4 4 3 4 7 5 4 3 3 4 4 4 6 7 10 11 11 10 7 10 12 13 13 15 15 15 15 13 10 7 11 19 19 19 16 15 18 16 15 15 16 17 19
10 9 7 7 8 8 8 6 6 5 6 7 8 9 10 10 10 10 9 8 8 8 9 9 10 11 12 11 9 8 9 9 7 2 4 5 4 5 5 4 3 3 3 3 2 3 3 2 4 5 4 4 3 3 5 5 4 4 6 10 11 8 9 11 12 13 14 13 15 15 14 16 14 12 13 14 17 18 17 14 15 18 18 18 17 17 17 17
12 12 9 9 9 10 9 7 6 6 6 7 8 9 9 10 10 10 10 9 8 8 9 9 10 11 12 10 6 5 6 7 2 5 6 3 4 4 6 6 3 3 3 3 2 3 3 4 5 4 4 4 3 4 7 7 5 4 8 12 13 9 10 13 13 13 13 14 14 14 15 16 14 15 16 17 18 16 13 13 15 17 17 19 19 19 18 18
13 12 10 10 10 10 10 10 9 8 8 8 8 9 9 10 10 10 10 9 8 8 8 9 10 11 11 9 4 2 4 5 1 5 4 1 4 7 8 6 4 4 3 3 3 4 4 5 5 4 3 4 5 6 6 6 6 7 10 11 13 13 13 13 12 12 11 14 14 13 14 13 15 18 16 20 23 18 16 17 18 19 20 21 20 20 20 19
13 12 11 11 10 10 11 11 11 11 10 10 10 9 9 9 10 10 10 10 9 8 8 8 9 10 10 7 1 3 5 8 6 7 10 9 12 12 9 6 5 5 4 5 5 5 4 5 5 3 4 5 5 7 5 4 7 8 11 12 14 14 15 15 14 13 12 15 15 14 14 13 17 18 15 21 23 19 18 18 19 20 20 21 21 21 22 22
12 12 11 12 12 12 11 10 10 11 11 10 10 9 9 10 10 10 10 10 10 9 8 8 8 8 8 4 2 4 6 11 13 15 16 16 14 11 7 6 6 5 5 6 5 5 5 5 5 3 5 5 2 5 4 4 8 10 13 13 12 13 14 15 14 14 14 13 13 15 16 16 19 17 18 25 22 18 18 18 19 20 21 21 22 23 23 22
12 12 12 12 12 11 12 12 11 12 11 10 9 9 9 9 9 9 9 10 10 10 9 7 7 6 4 2 2 6 6 8 11 11 11 11 10 7 6 6 6 6 6 6 5 5 5 4 4 4 6 4 2 5 3 4 6 7 11 12 11 13 13 13 12 15 15 11 9 14 18 18 19 18 18 20 17 17 18 20 21 20 21 21 20 22 22 23
13 13 13 12 12 11 11 10 11 11 10 10 10 10 10 9 9 9 9 9 10 10 9 8 7 5 3 1 4 7 4 4 4 4 4 5 6 6 7 7 6 7 6 5 6 6 5 4 2 3 6 4 4 5 3 5 4 3 9 12 13 16 15 12 13 17 15 11 12 16 20 21 18 15 11 8 11 15 17 19 19 18 20 20 20 20 20 22
13 13 13 13 13 13 11 10 11 11 11 10 10 10 10 10 10 10 8 8 8 9 10 8 6 4 3 3 6 6 1 2 5 4 5 6 6 6 7 7 7 8 6 4 6 8 6 4 2 2 3 2 3 5 5 4 4 6 10 13 15 17 17 13 15 18 12 12 16 16 19 20 15 12 12 14 17 18 19 20 20 19 19 20 21 20 18 18
14 13 12 13 13 13 14 15 14 12 12 11 10 11 11 10 10 10 9 8 8 8 8 7 6 5 2 4 11 12 7 5 6 6 7 7 7 7 7 6 7 8 7 5 6 9 8 4 5 6 2 0 3 4 3 2 4 8 8 12 17 17 17 16 17 15 10 9 8 7 12 15 12 14 17 19 19 19 20 20 20 20 19 18 19 18 16 16
14 13 13 13 13 13 14 15 14 13 13 12 11 11 10 10 10 10 9 9 8 7 7 6 7 6 4 4 9 14 15 13 10 8 9 8 6 6 6 6 7 7 7 7 5 6 9 7 7 7 2 3 5 3 3 3 4 8 8 9 13 14 12 9 8 6 6 6 1 2 8 10 10 13 16 17 16 17 18 18 17 17 17 16 16 15 15 15
14 14 13 12 12 12 11 12 12 13 13 11 10 9 10 10 11 11 10 9 8 6 6 5 5 6 6 7 7 9 15 18 17 15 12 10 7 5 5 6 6 7 6 6 5 4 7 7 5 3 1 4 4 4 7 6 4 7 9 7 6 9 7 3 4 3 5 3 5 5 8 10 12 13 14 14 14 16 17 18 17 16 16 14 13 13 14 15
15 14 13 13 13 12 11 10 11 13 12 9 8 9 10 11 12 11 11 10 8 5 4 4 6 5 5 10 11 9 11 14 18 21 20 16 12 7 6 7 6 6 6 5 5 4 5 6 4 2 1 2 3 5 7 6 4 5 7 7 5 7 9 7 5 6 8 4 5 6 7 11 14 13 14 13 13 15 16 17 17 17 18 16 14 13 14 15
16 15 14 13 12 10 9 9 11 13 11 9 10 10 11 12 12 11 10 9 7 4 3 4 7 6 5 6 4 4 6 8 11 15 17 16 14 9 7 9 7 5 5 5 5 5 5 5 2 2 1 2 4 5 6 6 6 4 4 8 8 8 10 10 4 4 5 5 4 7 8 13 13 11 13 13 14 15 16 18 19 19 20 18 16 13 14 15
15 15 14 13 12 10 9 10 12 12 9 9 11 12 12 12 12 12 9 7 7 4 5 3 5 6 6 3 2 4 4 6 7 5 9 14 14 11 10 7 4 5 6 6 6 5 3 2 1 1 2 2 2 3 5 7 6 3 3 6 9 10 10 10 6 2 2 3 5 9 12 16 17 16 18 17 17 18 17 19 20 20 19 17 15 14 14 15
16 15 15 16 15 11 11 12 12 9 8 9 10 11 12 11 9 8 7 7 4 3 4 3 4 4 6 5 3 2 2 5 6 5 8 11 12 14 10 5 4 6 6 4 3 4 2 1 1 3 3 3 3 4 6 7 8 8 6 6 9 10 10 12 11 2 1 7 11 14 16 19 21 19 19 20 19 18 18 19 19 19 19 18 15 15 15 15
18 16 17 18 17 14 12 13 12 8 8 9 9 10 8 4 4 4 6 8 5 4 3 6 8 3 2 3 3 2 4 6 6 6 9 11 13 13 8 5 5 5 4 3 4 4 2 2 3 4 5 6 7 8 10 11 11 10 8 8 10 10 12 15 14 6 4 10 14 16 17 18 21 21 20 21 18 17 19 19 18 17 17 16 15 15 14 16
20 18 18 18 18 16 14 13 12 9 8 8 7 7 3 1 2 3 6 10 9 5 3 6 12 4 2 1 3 5 6 5 3 4 10 12 14 12 5 3 4 3 4 4 4 3 2 4 6 8 10 9 8 9 12 13 10 8 8 9 10 11 13 15 16 9 2 6 12 14 18 20 22 22 22 21 18 17 19 19 18 17 16 14 15 16 15 16
21 21 19 18 18 17 15 14 12 10 9 7 4 3 2 2 2 1 3 10 15 15 11 7 11 8 4 1 2 6 4 1 1 4 10 13 13 11 5 5 5 5 4 2 2 2 2 6 10 12 10 6 3 5 10 11 10 9 9 9 9 10 12 15 16 9 1 3 10 15 20 22 21 22 22 20 17 16 17 17 17 17 16 13 14 16 15 14
21 22 21 19 17 15 14 12 11 9 7 6 5 4 4 3 1 4 1 7 12 18 18 12 9 10 7 3 3 4 2 3 4 5 11 12 10 8 6 8 7 5 4 3 3 3 5 9 13 9 3 1 2 3 6 9 10 10 7 7 8 7 9 13 9 1 2 3 10 16 19 21 22 22 21 17 14 14 13 13 14 14 14 13 13 13 12 12
22 21 19 18 16 15 14 10 8 8 9 8 8 8 5 5 2 5 2 5 6 9 14 12 11 12 10 7 6 6 6 6 6 8 13 12 7 5 6 9 8 4 5 8 8 6 6 7 8 3 5 5 4 3 5 6 7 7 6 6 8 7 6 8 3 1 2 6 11 15 15 17 19 16 15 12 10 10 9 10 11 11 12 13 12 10 10 12
24 21 18 17 17 16 14 9 8 10 11 11 12 12 7 4 3 4 2 4 5 3 7 9 9 10 9 6 8 12 9 5 4 7 14 14 7 4 6 8 7 5 7 11 11 11 10 4 2 4 6 6 5 4 6 5 5 7 8 8 9 10 8 9 7 8 11 7 5 11 13 11 8 8 11 6 5 8 7 8 9 8 9 10 10 10 10 12
26 23 19 17 17 16 14 10 10 12 12 12 14 15 13 10 6 4 2 3 5 2 2 5 6 6 7 8 10 11 5 5 5 5 12 14 8 6 4 4 4 8 9 9 9 12 12 4 5 3 4 6 6 6 7 6 7 7 9 11 13 13 11 11 10 10 10 4 3 8 10 8 6 11 11 5 5 8 5 4 5 4 4 5 6 7 8 9
27 25 22 20 18 16 13 7 8 11 11 11 12 12 15 17 12 7 2 2 5 3 3 4 5 7 9 8 8 9 4 5 3 4 11 12 6 4 3 4 2 5 6 6 5 7 6 2 4 7 8 8 8 9 7 7 6 8 3 8 12 11 9 9 8 6 6 7 3 4 4 8 13 14 6 5 11 10 4 1 1 1 1 1 2 4 5 6
28 28 26 23 20 18 13 4 6 9 6 8 11 9 10 16 16 9 1 3 5 3 4 1 1 6 8 5 7 8 3 1 4 4 6 7 5 2 3 6 4 2 3 4 4 3 3 4 4 6 7 8 8 8 7 10 7 5 2 2 5 6 7 6 6 5 5 8 6 2 4 6 10 11 5 8 12 6 3 1 1 0 2 2 3 4 5 6
30 29 29 26 23 24 17 9 10 10 5 3 8 11 8 11 14 7 0 3 4 3 4 1 2 3 4 3 4 2 1 0 4 3 2 3 4 2 4 7 6 5 5 6 6 2 3 5 6 7 6 6 6 4 6 12 8 2 3 1 2 3 6 4 4 6 4 7 6 3 4 4 8 10 6 5 6 2 1 4 6 8 7 5 5 5 6 6
33 31 31 29 26 25 21 12 9 9 8 7 9 10 8 10 9 2 1 3 2 3 3 3 3 3 4 6 3 0 1 1 0 2 3 3 2 1 3 4 3 5 5 6 8 2 2 1 3 6 6 5 4 1 5 12 7 1 2 2 2 3 4 3 4 5 3 5 6 2 5 4 8 9 5 2 1 2 5 7 9 11 10 7 4 4 7 7
35 33 33 31 27 26 21 12 9 9 10 11 9 9 10 8 5 2 3 5 1 3 2 3 4 4 8 10 4 2 1 1 2 4 3 3 3 2 0 1 1 3 4 7 10 6 0 1 0 4 5 2 3 3 2 5 2 2 1 3 4 5 4 2 3 3 3 5 2 2 3 4 6 7 3 0 1 3 7 10 12 12 12 11 6 3 5 7
37 35 36 34 31 30 19 10 14 13 12 12 9 8 9 3 0 3 7 4 1 3 3 3 3 7 12 9 4 4 2 1 4 8 5 4 5 3 2 3 3 3 5 7 9 8 7 6 3 3 1 2 3 2 1 1 1 1 2 3 6 4 2 2 2 2 4 4 2 3 2 5 6 6 3 2 3 5 8 10 13 15 15 15 12 7 5 6
40 37 38 36 34 33 23 16 21 19 14 14 10 5 5 1 2 7 5 2 1 3 4 4 4 9 11 4 2 6 4 2 7 9 7 8 9 8 8 7 6 4 5 6 6 4 7 9 6 3 1 3 5 3 2 3 2 3 3 2 5 5 3 3 2 2 4 2 2 2 1 4 9 11 13 15 13 9 9 9 13 16 16 15 14 11 8 6
42 40 39 39 35 34 29 23 24 23 18 15 8 1 1 2 8 10 7 2 0 1 2 4 6 9 10 4 3 6 2 1 7 6 4 6 8 10 11 7 3 2 2 3 4 3 3 3 5 6 2 4 9 7 4 4 5 6 5 3 4 4 4 4 3 2 3 1 1 2 2 5 8 9 13 15 11 7 7 10 12 13 13 13 12 11 9 7
38 43 40 40 38 36 33 25 22 25 23 15 6 2 4 8 10 5 8 6 0 2 3 5 9 9 8 4 2 5 3 2 8 6 4 6 7 9 11 9 7 3 1 2 2 3 4 2 4 5 1 4 11 8 1 2 5 5 4 2 4 5 4 4 3 3 3 3 1 2 1 5 5 4 6 8 8 5 4 6 8 8 8 8 8 8 7 6
30 44 42 38 37 35 35 29 23 27 24 12 4 4 8 13 8 2 6 5 2 2 3 5 8 8 6 4 1 4 4 3 7 6 6 8 7 7 8 9 12 8 4 4 3 3 4 4 2 2 1 2 6 2 3 3 4 2 2 2 4 4 4 4 2 2 3 4 3 4 3 4 6 11 13 10 6 3 1 2 4 6 5 5 5 6 7 6
22 39 38 33 34 35 37 32 27 30 22 8 5 7 11 12 3 2 3 3 4 6 8 5 4 5 5 4 3 5 3 1 7 6 6 7 5 5 6 6 11 14 10 6 3 3 3 1 3 2 1 1 0 0 1 1 2 3 4 4 1 1 2 4 1 1 1 4 3 3 4 5 6 10 8 3 3 2 2 2 3 4 4 3 5 6 7 7
17 29 28 26 33 38 40 35 31 31 17 6 9 10 9 8 2 3 3 3 4 7 8 5 5 6 6 4 4 7 3 2 6 6 5 5 4 6 8 4 7 16 17 9 2 2 3 1 2 1 1 2 2 1 2 2 1 3 3 2 2 1 1 1 2 1 2 5 3 2 6 6 3 4 2 3 7 7 7 7 5 4 4 4 4 5 5 5
14 19 17 23 37 42 42 38 34 26 9 4 12 12 6 5 3 1 3 3 3 4 5 6 5 6 6 4 3 6 6 4 7 7 5 5 4 6 11 6 6 16 19 10 1 1 3 2 1 1 0 2 0 2 3 2 1 0 0 0 1 2 2 2 2 3 2 6 4 2 5 5 4 5 5 7 8 8 9 8 7 6 5 4 4 5 6 6
12 10 6 20 41 45 44 40 31 17 5 5 12 11 5 5 5 2 1 2 2 3 5 5 3 2 3 4 2 5 8 6 8 7 5 5 4 5 10 7 5 12 16 12 4 0 2 4 2 2 1 1 2 4 5 5 3 1 1 1 0 2 1 1 1 1 2 4 5 3 2 3 6 5 5 8 8 6 6 5 6 6 4 3 4 5 5 5
9 4 1 22 44 47 46 36 19 9 6 8 10 8 4 4 5 4 3 4 2 2 5 4 3 4 3 3 1 3 7 6 6 6 4 6 5 4 8 7 3 5 9 10 5 1 2 4 2 2 1 2 4 4 5 6 7 5 5 5 4 1 0 1 2 0 1 3 4 4 4 5 3 3 5 9 7 4 3 4 5 5 4 3 3 4 4 4
7 4 3 28 47 49 40 19 7 7 7 8 11 11 7 3 2 4 4 5 5 2 1 3 5 6 4 3 2 3 5 5 5 5 4 6 6 3 6 7 6 7 7 6 6 4 4 4 3 4 3 5 3 1 1 2 2 4 5 7 7 6 3 3 4 1 0 3 2 2 6 8 3 2 4 4 2 2 3 3 5 6 6 4 3 3 4 4
6 4 7 34 52 48 28 7 6 8 6 9 10 7 7 4 3 3 2 3 6 3 1 1 4 6 4 4 3 4 5 4 5 5 4 6 7 5 3 5 9 11 9 5 4 3 2 1 3 3 3 2 2 3 1 3 2 0 3 4 5 7 7 6 5 3 3 2 0 1 4 6 2 1 1 1 1 3 1 2 5 7 8 7 5 3 4 5
5 2 9 38 55 43 18 6 8 7 7 11 7 2 5 5 5 6 4 5 6 3 3 3 4 7 6 3 3 5 5 4 6 7 4 4 7 5 4 8 11 10 6 3 2 3 2 2 4 4 2 2 3 2 1 2 1 2 4 4 6 7 7 4 2 1 3 4 3 2 5 4 1 2 1 1 2 3 2 4 5 7 8 9 9 5 4 6
4 1 4 31 51 38 14 8 10 10 10 10 9 8 7 5 7 10 9 9 7 3 6 8 5 5 5 3 4 5 7 6 7 8 4 3 4 1 5 12 14 10 5 3 5 6 5 4 5 4 3 3 2 3 2 1 3 4 4 6 8 8 4 2 1 1 3 7 8 6 8 5 1 1 1 2 3 6 5 4 3 6 9 10 11 10 7 7
3 1 1 17 33 24 11 8 11 12 13 14 13 14 11 6 8 13 13 12 9 5 6 7 4 4 4 3 3 6 8 7 7 6 4 4 2 2 1 9 12 8 3 1 5 7 5 4 6 6 6 6 5 4 3 3 4 3 4 7 11 13 11 6 3 5 6 7 10 9 10 8 2 1 5 6 9 13 14 10 7 8 11 11 11 11 9 8
3 4 2 6 12 10 7 5 5 8 13 15 12 11 15 12 7 10 12 11 12 11 8 4 3 6 7 7 7 8 10 9 6 4 4 4 2 1 1 5 6 2 2 2 6 7 2 2 6 8 8 8 4 2 2 3 5 5 7 10 13 14 15 11 6 6 7 7 9 11 13 16 8 3 11 13 12 16 17 15 13 11 12 12 10 10 10 9
3 5 5 6 5 6 6 4 4 7 11 14 9 8 16 17 8 6 11 11 12 12 9 6 6 9 12 13 12 10 10 9 8 9 7 3 1 1 1 2 3 3 4 3 5 5 1 3 7 9 10 8 2 1 4 3 4 6 8 11 13 14 16 15 11 9 9 8 10 11 15 21 10 3 15 19 14 16 17 15 16 15 14 14 11 10 12 12
3 4 4 7 7 7 9 10 10 13 15 14 10 9 16 19 14 10 10 11 11 11 9 8 13 18 17 13 10 9 10 9 11 14 10 3 2 1 1 2 2 2 3 2 3 2 2 4 5 7 10 9 5 4 4 4 5 6 8 11 12 14 17 18 16 13 12 11 11 11 17 23 14 7 16 21 17 15 14 15 17 16 15 16 12 10 14 16
3 2 3 5 5 6 11 16 16 17 18 14 11 12 15 18 20 15 10 8 9 12 14 13 17 22 19 14 10 10 11 11 13 15 10 4 3 3 1 1 1 2 1 2 2 1 2 4 4 6 8 9 10 9 6 7 8 8 10 13 12 15 18 18 17 17 17 20 17 10 17 23 15 10 16 19 19 16 11 12 16 16 16 17 13 12 15 18
2 2 2 3 2 2 6 11 12 11 12 12 10 11 13 16 18 15 11 10 10 12 16 18 20 20 19 17 14 15 17 17 14 10 8 6 6 4 4 4 3 1 2 3 2 2 4 3 3 4 5 7 8 8 8 10 10 12 15 16 14 14 15 15 14 14 16 19 16 15 21 19 10 11 16 15 16 19 16 14 15 16 17 15 12 12 16 17
0 1 2 3 3 3 4 6 9 9 9 10 9 9 13 18 17 12 11 12 11 10 15 21 23 17 14 15 17 22 24 20 14 9 8 9 9 5 4 4 5 4 4 4 3 3 5 3 3 3 5 6 5 6 8 8 9 16 20 18 17 15 12 13 13 13 15 16 13 14 19 14 9 11 14 11 12 20 23 19 15 12 11 10 10 12 15 15
1 1 1 1 3 3 3 3 7 9 9 10 12 12 14 16 13 11 9 8 11 14 14 19 20 12 9 14 21 27 25 18 14 9 6 6 7 5 4 4 6 7 6 6 4 3 4 4 2 4 6 5 1 3 3 2 5 13 13 11 17 17 14 15 13 13 17 14 10 13 14 8 6 9 13 14 15 19 21 15 7 2 2 6 10 11 13 14
Wind_Direction
263 266 270 274 281 286 294 305 317 325 325 324 322 321 322 322 322 323 327 328 330 330 326 325 323 318 316 318 320 322 325 322 319 307 280 288 294 287 281 284 280 278 274 260 249 253 241 226 203 181 197 183 204 209 174 189 192 209 229 245 248 252 255 256 255 256 271 275 271 270 266 272 279 279 289 287 266 262 265 263 260 251 242 251 262 276 281 282
260 255 260 263 270 279 286 297 308 316 319 320 318 318 319 318 319 319 324 326 327 329 328 328 326 322 319 319 324 326 325 321 312 288 281 293 295 246 283 289 278 273 269 244 229 234 254 261 205 188 212 208 183 176 189 176 191 223 240 249 250 256 262 260 259 262 268 270 273 273 271 273 273 281 300 288 278 275 268 266 264 260 255 254 256 260 265 270
262 253 248 257 263 269 277 288 298 309 315 317 316 316 316 315 316 316 320 324 325 327 326 326 324 324 321 320 327 331 329 321 305 282 274 277 109 72 28 319 287 268 244 243 236 236 260 281 206 200 217 223 193 174 207 178 189 229 241 251 257 260 261 255 255 260 263 266 272 270 270 270 269 277 278 274 279 276 266 267 269 268 269 270 267 263 261 263
258 254 248 253 262 268 274 279 286 300 305 309 312 309 309 312 314 314 318 321 322 322 320 323 323 323 322 321 329 337 329 305 295 254 161 121 79 41 13 331 293 248 243 259 255 226 227 193 186 201 215 225 193 188 224 195 189 226 226 252 264 262 261 259 252 252 256 260 264 268 272 270 271 271 266 270 275 269 263 267 268 267 273 277 276 274 268 266
253 251 245 246 258 268 270 269 277 294 297 296 298 300 305 309 311 311 314 316 318 319 316 318 321 323 323 323 331 337 322 299 331 121 151 124 52 10 340 317 272 247 255 252 224 175 186 169 163 181 215 232 197 201 230 207 200 243 235 253 266 261 263 264 255 247 251 258 259 263 267 268 273 267 263 264 262 262 268 272 268 267 273 276 275 274 272 271
255 252 249 248 254 262 270 273 275 283 293 293 289 292 299 303 306 307 311 314 314 316 314 313 318 323 322 323 324 276 276 282 117 139 190 199 320 314 315 297 261 259 247 210 169 167 188 176 178 188 206 238 220 223 239 201 196 249 252 251 255 253 258 263 257 247 243 253 255 257 262 265 268 266 265 261 256 263 273 272 271 271 274 275 274 273 272 270
252 255 259 258 257 262 271 277 278 282 289 291 287 286 289 294 298 303 309 310 312 313 312 313 315 321 324 329 307 213 245 254 230 227 249 267 286 294 292 276 251 244 217 187 173 192 208 197 211 204 216 242 230 233 249 213 204 242 264 260 258 257 257 261 262 258 253 255 258 263 265 260 261 267 269 261 259 268 275 273 271 272 273 272 270 268 267 266
248 252 256 258 260 262 267 278 289 294 293 288 284 283 283 287 291 299 306 306 310 310 308 311 313 321 327 332 275 244 240 252 259 258 258 261 271 278 266 246 234 225 205 205 201 207 214 216 225 195 228 247 226 237 246 252 228 232 258 267 266 264 261 263 266 266 261 258 258 260 260 257 257 262 265 264 269 278 278 275 269 266 264 262 261 260 260 261
253 252 253 258 262 263 268 275 287 298 300 288 281 281 281 284 286 293 301 305 308 307 308 308 310 316 317 329 283 268 247 257 270 263 253 247 248 246 224 217 219 207 198 214 213 204 210 228 231 214 251 263 236 253 236 252 248 228 257 274 276 273 272 269 267 264 260 256 251 255 257 253 252 254 261 267 271 272 265 262 260 257 256 254 253 253 253 255
254 253 254 259 261 264 268 272 283 294 298 287 281 281 279 282 282 284 293 301 305 305 306 304 305 302 280 245 238 256 261 257 246 228 230 212 204 203 203 214 212 201 204 209 197 198 217 242 224 220 265 262 236 251 214 242 281 287 277 283 279 276 274 267 265 265 265 260 241 243 256 257 255 251 256 264 254 250 246 249 253 251 251 251 250 250 250 253
255 254 256 259 260 267 273 281 289 290 291 289 283 280 280 284 283 281 286 292 299 302 302 301 298 282 239 207 223 236 231 221 217 209 212 189 181 193 203 217 210 205 212 210 206 210 230 252 157 163 256 223 234 247 228 252 297 294 290 289 279 276 275 259 255 260 257 257 244 238 256 264 262 253 254 259 253 250 250 253 255 253 252 252 253 253 251 255
254 253 256 258 261 270 277 284 289 287 287 286 283 282 281 284 284 284 284 286 292 295 297 295 287 274 231 225 235 235 235 236 224 202 192 184 188 197 201 215 214 213 217 224 230 221 229 227 186 214 258 136 267 264 245 290 300 284 286 289 285 282 278 262 257 260 240 250 254 237 263 265 251 243 247 251 252 253 255 256 257 256 256 254 255 254 251 252
253 251 252 255 261 268 274 280 281 283 284 281 282 281 281 285 286 284 283 283 286 287 286 280 275 266 248 246 237 236 242 240 228 202 184 183 192 200 207 217 218 215 218 230 237 217 218 213 208 235 274 236 263 313 293 275 277 283 280 280 290 289 283 261 251 263 242 246 151 195 273 277 259 244 243 249 251 252 254 254 255 255 257 255 251 252 251 248
253 254 254 256 260 263 269 276 282 285 280 277 280 281 285 288 286 285 286 285 283 280 270 256 256 248 233 253 262 260 252 241 235 228 217 217 215 211 217 217 216 210 205 217 219 201 205 202 207 238 262 249 282 326 287 265 245 283 288 271 276 283 284 225 191 222 260 248 147 212 270 281 274 261 251 257 257 254 257 257 256 255 257 256 248 247 251 247
251 250 252 256 256 257 263 273 289 287 279 278 281 290 293 287 288 289 288 285 279 267 250 224 220 224 254 271 273 272 254 240 240 239 238 236 223 215 213 199 190 188 183 188 195 186 181 176 186 232 231 247 281 286 278 278 257 261 284 278 262 267 282 276 237 230 260 268 161 216 274 277 272 268 258 259 257 253 255 256 257 258 257 256 251 246 251 251
250 247 249 253 252 256 262 278 292 284 282 285 280 289 291 288 290 285 283 281 269 240 219 216 203 211 270 283 273 258 230 220 233 239 236 227 217 208 183 171 162 159 161 149 151 145 143 155 179 287 271 238 249 268 282 284 271 228 237 279 282 278 292 297 269 185 242 273 203 217 265 281 278 272 262 256 253 251 254 259 259 259 258 256 255 249 249 253
247 247 249 253 254 255 260 277 285 276 279 290 289 293 289 289 288 280 276 262 250 215 192 207 190 206 252 253 245 256 214 198 209 213 211 205 205 193 159 149 148 131 129 126 136 135 132 170 189 247 224 241 241 259 277 274 279 268 235 269 280 275 285 295 285 149 166 263 262 251 258 271 275 274 271 264 256 255 258 263 262 260 259 256 255 252 248 250
245 243 248 257 258 255 258 269 273 271 282 290 295 295 285 286 281 268 249 225 212 177 197 210 183 212 245 221 222 242 135 160 180 160 171 178 183 179 156 134 141 137 134 130 161 175 186 187 200 253 231 215 218 221 249 269 290 299 289 285 288 280 276 282 285 312 352 290 287 279 270 271 277 278 274 269 262 259 259 260 261 261 260 258 256 254 250 248
246 244 249 254 253 253 259 263 263 271 288 288 295 296 286 289 266 230 209 203 176 158 205 191 185 216 284 196 162 123 114 129 148 148 153 156 163 166 145 122 139 152 166 174 184 176 184 194 200 250 243 224 220 217 237 266 287 292 291 286 289 291 283 280 286 300 323 303 288 279 278 281 285 284 280 277 271 263 258 256 259 258 258 258 254 253 250 247
246 244 247 247 249 254 258 256 255 265 276 276 300 304 268 172 208 204 194 210 216 247 313 189 197 244 351 116 123 139 134 124 133 148 155 154 153 151 133 116 139 189 208 196 173 150 196 230 226 236 241 243 230 223 245 269 288 287 280 277 277 283 284 284 290 299 336 295 282 277 282 284 285 284 280 278 276 266 257 255 256 256 254 253 251 252 250 247
242 243 244 245 248 251 252 250 247 256 264 263 283 294 246 212 218 197 197 229 235 246 272 232 213 258 285 65 145 160 147 137 137 148 161 158 153 156 163 162 175 204 201 156 118 123 206 230 237 237 240 262 264 240 254 265 271 266 265 276 279 272 277 283 291 306 359 259 280 289 290 286 283 282 279 279 278 267 258 255 255 255 254 252 253 253 253 253
237 240 241 242 244 244 241 234 234 243 244 241 235 231 263 250 162 47 329 259 244 228 242 243 232 263 260 224 209 186 220 204 167 167 167 160 170 186 167 168 201 203 153 140 164 200 223 237 247 240 188 135 258 246 248 253 259 260 257 268 276 274 284 285 282 321 103 245 291 303 300 291 284 280 277 277 275 268 262 256 255 260 262 260 258 258 259 261
235 237 237 238 239 237 228 218 229 237 221 221 227 223 243 224 183 24 352 271 280 214 220 226 221 237 228 222 220 191 214 210 181 187 174 163 178 193 166 179 207 191 160 190 206 221 227 240 257 233 137 176 216 214 220 244 250 243 243 253 268 278 291 286 276 88 287 273 288 297 292 284 282 279 274 264 258 270 272 260 257 259 262 264 267 272 274 271
232 233 233 231 230 227 220 220 233 226 213 224 233 226 231 223 225 336 343 257 280 222 211 209 207 227 211 191 192 191 215 228 190 185 174 170 157 151 186 189 193 197 199 206 212 234 240 198 114 106 136 183 213 200 198 238 260 234 230 241 263 271 264 267 290 317 302 274 278 306 298 282 282 297 302 285 242 267 267 259 266 259 255 265 275 279 276 270
228 228 227 222 223 221 211 213 223 218 214 226 239 234 231 234 240 277 314 282 261 234 216 196 191 219 185 151 167 179 206 228 217 181 171 180 161 138 183 173 196 219 203 197 213 245 250 192 137 162 170 187 225 239 207 216 272 263 224 223 246 264 268 273 293 317 311 283 60 4 324 299 312 311 314 334 319 315 309 280 298 294 265 266 278 283 280 274
226 225 221 219 220 209 197 208 218 210 213 226 238 234 225 226 228 235 257 299 257 203 156 188 183 178 157 146 160 149 162 226 215 141 164 185 176 138 181 156 204 238 180 169 222 251 252 167 178 229 229 214 234 254 210 183 255 281 231 215 238 258 270 279 291 302 307 301 338 30 302 289 309 311 328 360 329 341 30 61 58 121 236 248 297 308 301 296
224 222 218 218 212 193 182 193 185 179 204 237 232 223 215 213 214 222 241 292 266 164 132 213 214 160 148 155 174 156 177 198 108 131 165 182 177 142 213 181 165 224 151 155 237 237 177 160 185 212 223 219 233 248 192 174 229 273 76 194 232 246 260 266 280 273 287 305 295 200 226 274 295 297 330 348 328 345 92 85 63 300 303 307 314 321 310 314
222 219 217 216 207 196 191 180 158 166 210 228 199 207 202 185 195 209 192 271 274 98 108 120 73 104 111 135 180 164 315 119 127 158 128 142 171 159 216 205 185 182 167 188 229 235 131 183 193 185 197 213 223 240 169 179 220 288 81 222 230 245 265 257 268 274 289 308 296 185 188 265 272 274 302 344 328 317 296 320 327 325 333 330 321 326 319 321
219 215 215 214 206 200 200 190 165 181 200 159 162 194 184 169 183 178 67 241 238 89 85 122 122 88 100 138 187 328 28 296 24 140 120 136 161 107 211 207 183 184 190 221 240 281 73 198 212 190 203 219 206 154 163 186 205 45 116 216 244 236 251 240 254 279 285 280 289 174 172 257 285 280 292 341 310 303 313 318 319 321 325 317 311 328 325 326
217 214 213 210 203 195 191 192 192 191 175 159 166 176 166 176 188 157 223 236 182 89 91 134 141 137 142 152 188 237 186 346 66 130 135 142 138 73 69 139 139 200 222 248 258 270 219 91 355 215 221 214 132 97 166 196 171 41 199 249 272 237 216 219 238 271 269 255 282 89 181 244 292 290 284 18 56 339 318 314 314 318 318 311 309 329 329 329
216 214 210 204 200 192 180 181 193 182 166 165 159 155 165 185 111 178 222 243 102 114 144 147 136 149 159 161 171 187 179 107 153 158 152 154 157 138 148 161 157 206 236 247 252 254 241 223 206 207 201 119 127 130 164 156 48 295 258 302 300 274 216 214 188 178 249 256 108 87 238 229 249 271 285 281 276 292 303 310 310 311 314 312 315 328 336 329
215 212 208 202 199 194 188 193 188 176 171 165 144 153 185 149 228 218 235 312 166 178 152 142 163 166 170 174 156 167 166 149 170 174 166 172 182 184 196 191 163 188 232 232 231 232 240 232 199 170 182 169 180 189 161 147 168 213 224 271 287 295 285 254 225 200 244 272 113 113 312 241 244 261 273 276 283 299 313 313 307 304 305 307 315 327 333 322
218 210 206 201 197 193 194 197 188 179 174 159 142 179 158 178 229 222 215 240 283 151 86 101 148 161 164 170 168 166 177 165 171 182 175 173 190 199 211 217 193 229 235 192 217 227 238 227 170 173 195 178 191 207 218 187 171 187 201 217 242 270 283 259 255 266 262 296 129 132 327 278 263 261 258 264 281 313 315 304 302 300 299 304 314 321 320 317
223 209 202 200 198 196 194 191 184 181 172 152 149 158 148 210 232 203 190 211 351 56 53 98 130 146 169 193 178 163 185 190 169 177 180 173 195 209 215 219 212 228 240 183 226 220 236 264 157 169 143 168 195 213 271 125 154 183 185 202 240 240 261 270 285 294 296 323 238 167 282 270 268 308 289 278 290 301 297 303 309 306 303 306 313 321 326 334
230 209 200 196 194 194 190 184 176 175 168 150 160 176 190 217 229 159 181 186 137 105 76 102 128 143 190 223 217 190 221 206 164 169 191 190 200 206 202 203 196 190 189 206 207 182 232 278 102 106 356 193 198 201 40 109 165 175 132 193 247 232 235 263 325 342 311 311 261 200 240 257 271 297 297 295 298 289 251 309 319 326 326 321 333 352 359 1
236 209 198 188 186 185 184 182 171 167 166 154 170 197 214 223 214 145 185 134 142 143 119 131 149 151 201 212 190 210 246 184 163 174 204 211 231 219 202 200 188 187 189 189 186 172 214 276 85 102 205 151 241 110 74 245 194 150 162 198 217 25 257 244 229 83 229 277 263 206 254 275 289 289 280 287 321 1 54 21 352 347 340 344 10 15 9 7
244 205 192 183 181 179 180 180 166 162 168 178 192 208 222 225 200 169 166 99 126 140 138 183 192 163 195 213 191 188 178 146 171 190 198 200 234 209 202 224 183 189 201 203 212 207 210 244 101 153 169 94 351 263 102 8 311 150 179 193 115 79 309 265 266 280 239 265 268 205 259 280 304 296 300 356 342 358 21 16 14 6 360 8 16 18 15 8
249 201 190 185 179 175 176 173 161 160 168 196 213 230 230 219 237 194 141 119 119 133 170 213 196 167 189 204 179 164 174 175 168 187 193 190 232 186 178 206 190 192 205 208 251 262 208 238 143 139 174 99 152 215 142 100 358 18 258 86 84 223 181 145 245 276 269 278 283 232 263 269 228 252 304 328 336 353 3 6 16 15 14 13 356 359 9 8
251 205 202 185 176 172 170 164 155 158 174 190 216 233 220 219 249 271 153 178 148 146 203 226 201 182 185 179 149 151 180 184 159 181 203 191 217 177 172 198 196 195 199 191 193 211 190 240 220 148 290 74 177 215 192 168 140 54 234 172 211 280 251 165 199 272 257 280 300 290 287 257 215 221 285 295 310 337 345 354 7 0 356 359 352 352 354 354
241 225 197 172 171 167 161 155 148 164 192 198 213 220 203 225 243 247 249 228 218 198 215 221 201 217 201 156 113 152 185 200 173 188 220 193 202 192 186 197 160 166 183 181 203 259 166 229 226 139 191 218 195 207 204 182 167 178 196 186 185 186 339 271 220 173 258 262 287 292 290 279 239 195 241 266 290 319 312 312 318 319 318 324 332 327 322 325
216 253 183 170 167 157 148 144 155 183 195 208 219 224 217 208 214 245 258 223 230 272 229 191 197 212 194 167 211 159 171 205 194 204 232 206 219 231 192 180 143 131 135 162 213 217 179 208 206 156 183 211 201 75 327 273 169 179 198 193 189 178 174 226 222 176 251 255 260 291 293 289 276 187 221 247 281 279 252 263 290 307 310 303 280 273 284 295
214 260 177 171 164 150 143 159 189 181 204 207 209 218 206 193 189 224 253 202 218 253 329 191 208 213 195 172 186 159 164 198 197 208 234 210 220 240 186 147 143 146 139 143 200 193 133 185 207 197 201 195 67 53 351 315 11 58 249 212 190 192 199 220 230 192 163 208 5 29 288 287 297 92 81 93 281 292 260 232 284 308 310 308 294 252 263 283
219 241 164 171 165 153 152 198 179 185 221 208 207 204 188 202 199 200 223 216 206 202 203 215 211 222 223 171 143 164 180 204 198 199 229 224 221 228 153 140 146 152 151 143 154 137 112 183 210 235 231 114 75 87 92 359 56 213 246 215 199 209 211 223 240 166 160 180 167 186 237 253 350 47 81 149 230 258 220 208 256 296 304 310 309 301 309 308
205 60 144 175 171 165 171 190 180 198 212 206 218 215 207 227 209 203 216 218 211 179 201 217 210 217 227 158 145 178 184 203 211 204 216 227 219 183 143 159 162 167 183 182 162 166 180 186 189 214 215 173 164 165 165 213 215 224 224 197 205 208 182 106 76 191 220 202 191 215 242 240 53 30 247 243 259 264 257 224 237 301 308 312 313 311 315 309
176 111 62 186 184 184 195 193 186 198 198 201 213 208 206 222 214 210 212 213 220 209 204 224 206 188 205 156 157 195 199 214 224 210 212 222 226 17 148 185 183 183 212 216 155 167 186 186 179 192 209 212 205 188 193 191 178 206 220 199 203 199 182 168 188 210 214 200 197 218 245 248 242 322 285 284 290 291 296 298 298 302 297 295 299 303 307 305
198 208 148 190 202 211 221 209 204 204 196 199 208 204 206 213 210 206 207 214 225 219 218 239 184 184 205 204 209 221 223 230 238 230 223 212 213 1 31 208 210 223 304 243 165 159 163 213 201 214 229 230 220 174 150 131 142 178 204 200 202 201 194 195 214 216 206 217 218 209 236 257 255 275 283 280 283 287 291 297 300 294 285 282 282 288 298 301
230 218 175 174 202 225 232 234 226 215 200 197 195 188 203 211 209 190 199 212 216 211 221 238 211 207 211 206 213 226 225 226 236 238 234 199 193 306 50 167 222 321 336 271 190 157 142 225 211 224 240 249 269 125 145 170 200 198 198 201 201 200 199 202 215 207 190 231 241 192 218 255 255 218 271 276 277 278 281 289 291 289 287 286 284 290 297 295
229 229 198 194 194 203 216 214 210 213 211 203 195 192 202 208 208 199 198 208 206 195 201 221 220 221 218 205 206 221 219 220 230 231 227 185 139 207 55 97 201 303 346 291 232 173 207 235 201 205 234 242 237 216 184 199 237 225 214 216 204 196 199 207 217 209 192 227 243 182 201 241 244 215 253 268 272 271 276 282 282 283 285 284 286 299 300 292
244 262 254 234 208 194 208 209 206 210 214 210 206 210 209 205 207 208 193 186 200 197 198 214 221 220 217 205 201 217 213 211 224 224 210 188 179 175 135 109 178 315 331 225 240 227 226 240 184 188 232 239 226 224 212 215 240 244 233 227 213 202 202 206 214 213 213 231 242 225 227 242 244 233 243 258 271 274 273 274 276 277 274 276 288 301 294 287
252 267 279 277 254 176 207 213 206 208 214 215 216 217 218 216 213 211 196 182 190 192 195 215 225 218 211 203 203 223 222 214 223 219 176 181 208 186 192 198 140 104 241 212 226 246 230 229 135 150 238 244 221 217 221 226 241 249 240 226 216 214 210 211 218 215 221 237 244 247 255 253 240 241 248 254 273 282 277 265 266 272 275 283 296 292 281 280
216 310 303 303 273 203 200 204 200 205 211 213 214 210 220 227 219 212 212 201 197 192 190 210 224 219 205 200 206 225 229 220 221 214 168 185 206 185 193 201 145 149 201 201 195 209 219 230 95 125 243 247 198 195 226 236 251 261 254 232 216 218 211 210 216 206 212 233 238 239 254 256 226 238 259 262 262 270 272 269 269 276 285 290 282 270 272 279
116 293 240 300 303 247 229 207 197 207 211 211 215 212 219 230 221 214 223 208 207 216 205 208 220 218 200 204 212 224 229 224 222 216 171 179 201 192 197 199 176 177 181 187 206 198 193 208 161 168 232 256 141 146 195 218 258 265 259 216 204 214 216 217 219 208 208 219 231 235 245 251 223 231 257 263 253 253 262 271 277 272 260 266 266 269 279 287